Header for Extended Forecast Station List Page

Search by: ID | Name | Date | Parm | Value | Avg | % Avg
Sort by: ID | Name | Date | Parm | Value | Avg | % Avg

Enter search or view all records.

Click on id for station plot
#IDNameDateParmValueAvg% Avg
0BULO3BULLY CREEK-BULLY CREEK DAM02-18-2020INFLOW (KAF)128146
1LWRI1LITTLE WOOD-LITTLE WOOD DAM02-18-2020INFLOW (KAF)386756
2BERO3MALHEUR-AGENCY VALLEY DAM02-18-2020INFLOW (KAF)445285
3MYKO3MCKAY CREEK-NEAR PILOT ROCK02-18-2020DISCHARGE (KAF)5936164
4RIDI1WILLOW CREEK-RIRIE DAM02-18-2020INFLOW (KAF)6443149
5MACI1BIG LOST-MACKAY RESERVOIR NEAR MACKAY02-18-2020INFLOW (KAF)729775
6WRMO3MALHEUR-WARM SPRINGS DAM02-18-2020INFLOW (KAF)7971110
7HWRI1BIG LOST-AT HOWELL RANCH NEAR CHILLY02-18-2020DISCHARGE (KAF)809683
8DLGM8CLARK FORK-AT DEER LODGE02-18-2020DISCHARGE (KAF)8181100
9PIHI1PORTNEUF-AT POCATELLO02-18-2020DISCHARGE (KAF)8510185
10DEDI1DEADWOOD-NEAR LOWMAN02-18-2020INFLOW (KAF)9910396
11KADW1KACHESS-KACHESS DAM02-18-2020INFLOW (KAF)11499115
12GIBO3UMATILLA-NEAR GIBBON02-18-2020DISCHARGE (KAF)11783140
13BUDW1BUMPING-BUMPING LAKE DAM02-18-2020INFLOW (KAF)11992129
14MAGI1BIG WOOD-MAGIC DAM02-18-2020INFLOW (KAF)11920658
15HALI1BIG WOOD-AT HAILEY02-18-2020DISCHARGE (KAF)12115877
16KEDW1YAKIMA-KEECHELUS LAKE02-18-2020INFLOW (KAF)124104119
17EASW1YAKIMA-AT EASTON02-18-2020DISCHARGE (KAF)127100127
18ARDW1ENTIAT-NEAR ARDENVOIR02-18-2020DISCHARGE (KAF)138135102
19TNAW1TEANAWAY-BELOW FORKS02-18-2020DISCHARGE (KAF)157132119
20SATI1ST MARIES-NEAR SANTA02-18-2020DISCHARGE (KAF)163151108
21RILW1TIETON-RIMROCK LAKE NEAR RIMROCK02-18-2020INFLOW (KAF)174153113
22HOTI1BRUNEAU-NEAR HOT SPRINGS02-18-2020DISCHARGE (KAF)185164113
23IPDI1HENRYS FORK-ISLAND PARK DAM02-18-2020INFLOW (KAF)194176110
24RCCM8ROCK CREEK-NEAR CLINTON02-18-2020DISCHARGE (KAF)203184110
25STRM8ST. REGIS-NEAR ST. REGIS02-18-2020DISCHARGE (KAF)21623393
26HODO3HOOD-NEAR TUCKER BRIDGE02-18-2020DISCHARGE (KAF)27027499
27TCHW1WALLA WALLA-NEAR TOUCHET02-18-2020DISCHARGE (KAF)271193141
28PDTO3UMATILLA-AT PENDLETON02-18-2020DISCHARGE (KAF)274188146
29DRMM8CLARK FORK-NR DRUMMOND02-18-2020DISCHARGE (KAF)279MM
30UMAO3UMATILLA-NEAR UMATILLA02-18-2020DISCHARGE (KAF)291149196
31TEAI1TETON-NEAR ST. ANTHONY02-18-2020DISCHARGE (KAF)306246124
32CHEI1FALL RIVER-NEAR CHESTER02-18-2020DISCHARGE (KAF)318281113
33UNDW1WHITE SALMON-NEAR UNDERWOOD02-18-2020DISCHARGE (KAF)33835795
34BIGI1BOISE-AT GLENWOOD BRIDGE02-18-2020DISCHARGE (KAF)352348101
35CLUW1CLE ELUM-CLE ELUM LAKE02-18-2020INFLOW (KAF)355309115
36ARAI1SF BOISE-ANDERSON RANCH DAM02-18-2020INFLOW (KAF)36943285
37PARI1BOISE-NEAR PARMA02-18-2020DISCHARGE (KAF)39241894
38CLFW1NACHES-NEAR CLIFFDEL02-18-2020DISCHARGE (KAF)399314127
39CSDI1NF PAYETTE-CASCADE DAM02-18-2020INFLOW (KAF)42144096
40OWYO3OWYHEE-OWYHEE DAM02-18-2020INFLOW (KAF)447361124
41WSRI1WEISER-NEAR WEISER02-18-2020DISCHARGE (KAF)451436103
42PITW1KLICKITAT-NEAR PITT02-18-2020DISCHARGE (KAF)48853092
43JLKW4SNAKE-JACKSON LAKE AT DAM02-18-2020INFLOW (KAF)545514106
44MILI1SNAKE-AT MILNER02-18-2020DISCHARGE (KAF)54664784
45NACW1NACHES-NEAR NACHES02-18-2020DISCHARGE (KAF)600400150
46ANTI1HENRYS FORK-AT ST. ANTHONY02-18-2020DISCHARGE (KAF)649594109
47PATW1METHOW-NEAR PATEROS02-18-2020DISCHARGE (KAF)676621109
48UMTW1YAKIMA-AT UMTANUM02-18-2020DISCHARGE (KAF)697624112
49MONO3NF JOHN DAY-AT MONUMENT02-18-2020DISCHARGE (KAF)697625112
50BONM8BLACKFOOT-NEAR BONNER02-18-2020DISCHARGE (KAF)733615119
51REXI1HENRYS FORK-AT REXBURG02-18-2020DISCHARGE (KAF)789693114
52PRTI1PRIEST-NEAR PRIEST RIVER02-18-2020DISCHARGE (KAF)809697116
53CHDW1CHELAN-LAKE CHELAN DAM02-18-2020INFLOW (KAF)814685119
54PARW1YAKIMA-NEAR PARKER02-18-2020DISCHARGE (KAF)829645129
55EMMI1PAYETTE-NEAR EMMETT02-18-2020DISCHARGE (KAF)842109577
56SERO3JOHN DAY-AT SERVICE CK02-18-2020DISCHARGE (KAF)953901106
57BITM8BITTERROOT-NEAR MISSOULA02-18-2020DISCHARGE (KAF)956918104
58LUCI1BOISE-LUCKY PEAK DAM02-18-2020INFLOW (KAF)991MM
59KIOW1YAKIMA-AT KIONA02-18-2020DISCHARGE (KAF)10831023106
60PESW1WENATCHEE-AT PESHASTIN02-18-2020DISCHARGE (KAF)11331054107
61JKSW4SNAKE-NEAR JACKSON02-18-2020DISCHARGE (KAF)1170932126
62TONW1OKANOGAN-NEAR TONASKET02-18-2020DISCHARGE (KAF)12081121108
63WGCM8MF FLATHEAD-NEAR WEST GLACIER02-18-2020DISCHARGE (KAF)12571103114
64ABOM8CLARK FORK-ABOVE MISSOULA02-18-2020DISCHARGE (KAF)12601123112
65FCFM8NF FLATHEAD-NEAR COLUMBIA FALLS02-18-2020DISCHARGE (KAF)12631135111
66MODO3DESCHUTES-AT MOODY NR BIGGS02-18-2020DISCHARGE (KAF)1394153891
67ALPW4SNAKE-NEAR ALPINE02-18-2020DISCHARGE (KAF)14891232121
68HHWM8SF FLATHEAD-HUNGRY HORSE DAM02-18-2020INFLOW (KAF)16581478112
69TRYO3GRANDE RONDE-TROY02-18-2020DISCHARGE (KAF)17221221141
70LAUW1KETTLE-AT LAURIER02-18-2020DISCHARGE (KAF)19051417134
71PLDI1SF SNAKE-PALISADES DAM02-18-2020INFLOW (KAF)22161907116
72BELM8CLARK FORK-BELOW MISSOULA02-18-2020DISCHARGE (KAF)22172060108
73SWAI1SNAKE-BELOW SWAN FALLS02-18-2020DISCHARGE (KAF)2288267985
74BFTI1SNAKE-NEAR BLACKFOOT02-18-2020DISCHARGE (KAF)23461606146
75SNAI1SNAKE-AT BLACKFOOT02-18-2020DISCHARGE (KAF)23791624146
76SHYI1SNAKE-NEAR SHELLEY02-18-2020DISCHARGE (KAF)26691875142
77HEII1SNAKE-NEAR HEISE02-18-2020DISCHARGE (KAF)26981861145
78SRGM8CLARK FORK-AT ST REGIS02-18-2020DISCHARGE (KAF)2744281098
79SIFI1SNAKE-AB EAGLE ROCK NR IDAHO FALLS02-18-2020DISCHARGE (KAF)27881885148
80DWRI1NF CLEARWATER-DWORSHAK DAM02-18-2020INFLOW (KAF)27912527110
81SPOW1SPOKANE-AT SPOKANE02-18-2020DISCHARGE (KAF)2828MM
82LEOI1KOOTENAI-AT LEONIA02-18-2020DISCHARGE (KAF)2924367480
83AFRI1SNAKE-AMERICAN FALLS RESERVOIR02-18-2020INFLOW (KAF)29342277129
84COEI1COEUR D ALENE-COEUR D ALENE LAKE02-18-2020INFLOW (KAF)29732805106
85LLKW1SPOKANE-AT LONGLAKE02-18-2020INFLOW (KAF)3171338194
86LYDM8KOOTENAI-LIBBY DAM02-18-2020INFLOW (KAF)36233559102
87WHBI1SALMON-AT WHITEBIRD02-18-2020DISCHARGE (KAF)3710428487
88CFMM8FLATHEAD-AT COLUMBIA FALLS02-18-2020DISCHARGE (KAF)37703144120
89WEII1SNAKE-AT WEISER02-18-2020DISCHARGE (KAF)4337533281
90KERM8FLATHEAD-KERR DAM02-18-2020INFLOW (KAF)43463990109
91ORFI1CLEARWATER-AT OROFINO02-18-2020DISCHARGE (KAF)46904028116
92BRNI1SNAKE-BROWNLEE DAM02-18-2020INFLOW (KAF)4848576684
93NOXM8CLARK FORK-NOXON RAPIDS DAM02-18-2020INFLOW (KAF)6581730590
94SPDI1CLEARWATER-AT SPALDING02-18-2020DISCHARGE (KAF)68056310108
95CABI1CLARK FORK-CABINET GORGE DAM02-18-2020INFLOW (KAF)7268766195
96ALFW1PEND OREILLE-ALBENI FALLS DAM02-18-2020INFLOW (KAF)8784925495
97ANAW1SNAKE-NEAR ANATONE02-18-2020DISCHARGE (KAF)104621225885
98LGDW1SNAKE-LOWER GRANITE DAM02-18-2020INFLOW (KAF)172671856493
99LGSW1SNAKE-LITTLE GOOSE DAM02-18-2020INFLOW (KAF)172671860293
100LMNW1SNAKE-LOWER MONUMENTAL DAM02-18-2020INFLOW (KAF)174431881293
101IHDW1SNAKE-ICE HARBOR DAM02-18-2020INFLOW (KAF)174431867793
102CIBW1COLUMBIA-AT INTL BOUNDARY02-18-2020DISCHARGE (KAF)23924MM
103GCDW1COLUMBIA-GRAND COULEE DAM02-18-2020INFLOW (KAF)291812985698
104CHJW1COLUMBIA-CHIEF JOSEPH DAM02-18-2020INFLOW (KAF)3172427500115
105WELW1COLUMBIA-WELLS DAM02-18-2020INFLOW (KAF)3358529314115
106RRHW1COLUMBIA-ROCKY REACH DAM02-18-2020INFLOW (KAF)3420029776115
107PRWW1COLUMBIA-PRIEST RAPIDS DAM02-18-2020INFLOW (KAF)3530632011110
108WANW1COLUMBIA-WANAPUM DAM02-18-2020INFLOW (KAF)3531331503112
109MCDW1COLUMBIA-MCNARY DAM02-18-2020INFLOW (KAF)5397352823102
110JDAO3COLUMBIA-JOHN DAY DAM02-18-2020INFLOW (KAF)5651155399102
111TDAO3COLUMBIA-THE DALLES DAM02-18-2020INFLOW (KAF)5689253399107
112BONO3COLUMBIA-BONNEVILLE DAM02-18-2020INFLOW (KAF)5797055806104
113BFEI1KOOTENAI-AT BONNERS FERRY02-18-2020STAGE (FT)MMM
114HOPI1PEND OREILLE-PEND OREILLE LAKE NR HOPE02-18-2020LAKE ELEVATION (FT)MMM
115SJMI1ST JOE-AT ST MARIES02-18-2020STAGE (FT)MMM